| time (UTC) | temp F | wind direction | speed MPH | gust MPH | rain 1hr in | rain 24hr in | rain mn in | humidity % | barometer mb |
| 20260507040036 | 59 | 348 | 8.0 | 15.0 | 0.00 | 0.17 | 0.17 | 90 | 1005.7 |
| 20260507034538 | 59 | 261 | 2.0 | 14.0 | 0.00 | 0.17 | 0.17 | 92 | 1005.2 |
| 20260507033017 | 60 | 288 | 3.0 | 11.0 | 0.00 | 0.17 | 0.17 | 93 | 1004.9 |
| 20260507031518 | 60 | 261 | 4.0 | 10.0 | 0.00 | 0.17 | 0.17 | 92 | 1004.7 |
| 20260507030058 | 60 | 241 | 3.0 | 10.0 | 0.00 | 0.17 | 0.17 | 92 | 1004.6 |
| 20260507024557 | 60 | 200 | 2.0 | 8.0 | 0.00 | 0.17 | 0.17 | 92 | 1004.7 |
| 20260507023037 | 59 | 236 | 5.0 | 9.0 | 0.00 | 0.17 | 0.17 | 92 | 1004.8 |
| 20260507021538 | 59 | 207 | 4.0 | 10.0 | 0.00 | 0.17 | 0.17 | 92 | 1004.6 |
| 20260507020029 | 59 | 258 | 3.0 | 10.0 | 0.00 | 0.17 | 0.17 | 92 | 1004.8 |
| 20260507014519 | 59 | 224 | 4.0 | 12.0 | 0.01 | 0.17 | 0.17 | 92 | 1004.9 |
| 20260507013119 | 59 | 225 | 5.0 | 11.0 | 0.01 | 0.17 | 0.17 | 92 | 1005.0 |
| 20260507011609 | 59 | 192 | 3.0 | 8.0 | 0.01 | 0.17 | 0.17 | 92 | 1005.1 |
| 20260507010052 | 59 | 208 | 4.0 | 10.0 | 0.01 | 0.17 | 0.17 | 92 | 1005.1 |
| 20260507004539 | 59 | 251 | 4.0 | 10.0 | 0.01 | 0.16 | 0.16 | 92 | 1005.1 |
| 20260507003028 | 59 | 218 | 4.0 | 12.0 | 0.05 | 0.16 | 0.16 | 92 | 1005.0 |
| 20260507001530 | 59 | 219 | 3.0 | 11.0 | 0.08 | 0.16 | 0.16 | 93 | 1004.9 |
| 20260507000024 | 60 | 189 | 3.0 | 8.0 | 0.10 | 0.16 | 0.16 | 92 | 1004.8 |
| 20260506234530 | 60 | 182 | 4.0 | 9.0 | 0.10 | 0.15 | 0.15 | 92 | 1004.7 |
| 20260506233022 | 60 | 194 | 4.0 | 9.0 | 0.07 | 0.11 | 0.11 | 92 | 1004.8 |
| 20260506231521 | 60 | 217 | 4.0 | 9.0 | 0.04 | 0.08 | 0.08 | 91 | 1005.1 |
| 20260506230021 | 60 | 188 | 3.0 | 12.0 | 0.02 | 0.06 | 0.06 | 91 | 1005.1 |
| 20260506224515 | 61 | 184 | 7.0 | 13.0 | 0.02 | 0.05 | 0.05 | 90 | 1005.2 |
| 20260506223057 | 61 | 241 | 4.0 | 11.0 | 0.01 | 0.04 | 0.04 | 90 | 1005.2 |
| 20260506221559 | 61 | 200 | 6.0 | 15.0 | 0.02 | 0.04 | 0.04 | 90 | 1005.2 |
| 20260506220036 | 61 | 164 | 3.0 | 16.0 | 0.03 | 0.04 | 0.04 | 90 | 1005.4 |
| 20260506214534 | 61 | 177 | 5.0 | 12.0 | 0.03 | 0.03 | 0.03 | 90 | 1005.7 |
| 20260506213014 | 61 | 236 | 6.0 | 9.0 | 0.02 | 0.02 | 0.02 | 89 | 1005.9 |
| 20260506211521 | 61 | 191 | 3.0 | 7.0 | 0.02 | 0.02 | 0.02 | 89 | 1006.1 |
| 20260506210055 | 61 | 177 | 4.0 | 9.0 | 0.01 | 0.01 | 0.01 | 89 | 1006.2 |
| 20260506204552 | 62 | 202 | 3.0 | 9.0 | 0.00 | 0.00 | 0.00 | 87 | 1006.1 |
| 20260506203039 | 63 | 169 | 3.0 | 7.0 | 0.00 | 0.00 | 0.00 | 85 | 1006.1 |
| 20260506201536 | 63 | 222 | 3.0 | 10.0 | 0.00 | 0.00 | 0.00 | 82 | 1006.0 |
| 20260506200040 | 64 | 166 | 5.0 | 8.0 | 0.00 | 0.00 | 0.00 | 81 | 1005.9 |
| 20260506194529 | 65 | 202 | 4.0 | 9.0 | 0.00 | 0.00 | 0.00 | 78 | 1006.0 |
| 20260506193027 | 68 | 167 | 5.0 | 15.0 | 0.00 | 0.00 | 0.00 | 71 | 1006.2 |
| 20260506191522 | 68 | 222 | 7.0 | 15.0 | 0.00 | 0.00 | 0.00 | 70 | 1006.0 |
| 20260506190021 | 68 | 196 | 3.0 | 8.0 | 0.00 | 0.00 | 0.00 | 70 | 1006.2 |
| 20260506184521 | 68 | 165 | 5.0 | 15.0 | 0.00 | 0.00 | 0.00 | 67 | 1005.9 |
| 20260506183004 | 71 | 169 | 7.0 | 17.0 | 0.00 | 0.00 | 0.00 | 60 | 1005.9 |
| 20260506181501 | 71 | 175 | 6.0 | 14.0 | 0.00 | 0.00 | 0.00 | 60 | 1006.2 |
| 20260506180043 | 71 | 208 | 7.0 | 18.0 | 0.00 | 0.00 | 0.00 | 60 | 1006.3 |
| 20260506174541 | 71 | 198 | 7.0 | 19.0 | 0.00 | 0.00 | 0.00 | 62 | 1006.3 |
| 20260506173024 | 71 | 154 | 10.0 | 17.0 | 0.00 | 0.00 | 0.00 | 61 | 1006.5 |
| 20260506171524 | 70 | 167 | 8.0 | 15.0 | 0.00 | 0.00 | 0.00 | 62 | 1006.6 |
| 20260506170002 | 70 | 162 | 9.0 | 13.0 | 0.00 | 0.00 | 0.00 | 63 | 1006.7 |
| 20260506164503 | 70 | 167 | 9.0 | 17.0 | 0.00 | 0.00 | 0.00 | 62 | 1006.9 |
| 20260506163107 | 72 | 173 | 7.0 | 16.0 | 0.00 | 0.00 | 0.00 | 59 | 1007.1 |
| 20260506161544 | 72 | 234 | 7.0 | 17.0 | 0.00 | 0.00 | 0.00 | 58 | 1007.3 |
| 20260506160050 | 71 | 183 | 6.0 | 12.0 | 0.00 | 0.00 | 0.00 | 60 | 1007.6 |
| 20260506154526 | 71 | 238 | 7.0 | 18.0 | 0.00 | 0.00 | 0.00 | 60 | 1008.1 |
| 20260506153025 | 71 | 227 | 6.0 | 19.0 | 0.00 | 0.00 | 0.00 | 60 | 1008.3 |
| 20260506151508 | 70 | 194 | 9.0 | 21.0 | 0.00 | 0.00 | 0.00 | 63 | 1008.3 |
| 20260506150008 | 70 | 223 | 8.0 | 18.0 | 0.00 | 0.00 | 0.00 | 63 | 1008.5 |
| 20260506144552 | 69 | 212 | 8.0 | 17.0 | 0.00 | 0.00 | 0.00 | 64 | 1008.4 |
| 20260506143050 | 69 | 229 | 10.0 | 17.0 | 0.00 | 0.00 | 0.00 | 65 | 1008.2 |
| 20260506141534 | 68 | 165 | 6.0 | 19.0 | 0.00 | 0.00 | 0.00 | 66 | 1008.3 |
| 20260506140032 | 68 | 238 | 6.0 | 19.0 | 0.00 | 0.00 | 0.00 | 68 | 1008.4 |
| 20260506134514 | 67 | 240 | 5.0 | 18.0 | 0.00 | 0.00 | 0.00 | 69 | 1008.7 |
| 20260506133014 | 66 | 227 | 9.0 | 17.0 | 0.00 | 0.00 | 0.00 | 69 | 1008.9 |
| 20260506131557 | 66 | 246 | 9.0 | 17.0 | 0.00 | 0.00 | 0.00 | 70 | 1008.8 |
| 20260506130055 | 66 | 252 | 6.0 | 14.0 | 0.00 | 0.00 | 0.00 | 70 | 1008.9 |
| 20260506124540 | 65 | 222 | 7.0 | 15.0 | 0.00 | 0.00 | 0.00 | 72 | 1008.8 |
| 20260506123042 | 64 | 240 | 6.0 | 12.0 | 0.00 | 0.00 | 0.00 | 73 | 1009.2 |
| 20260506121519 | 64 | 202 | 5.0 | 10.0 | 0.00 | 0.00 | 0.00 | 73 | 1008.9 |
| 20260506120027 | 63 | 205 | 4.0 | 12.0 | 0.00 | 0.00 | 0.00 | 74 | 1009.0 |
| 20260506114600 | 63 | 237 | 4.0 | 15.0 | 0.00 | 0.00 | 0.00 | 75 | 1009.3 |
| 20260506113109 | 63 | 225 | 6.0 | 12.0 | 0.00 | 0.00 | 0.00 | 75 | 1009.4 |
| 20260506111541 | 62 | 181 | 6.0 | 18.0 | 0.00 | 0.00 | 0.00 | 76 | 1009.2 |
| 20260506110040 | 62 | 254 | 3.0 | 14.0 | 0.00 | 0.00 | 0.00 | 76 | 1009.3 |
| 20260506104521 | 62 | 199 | 4.0 | 11.0 | 0.00 | 0.00 | 0.00 | 76 | 1009.2 |
| 20260506103027 | 62 | 182 | 3.0 | 11.0 | 0.00 | 0.00 | 0.00 | 75 | 1009.4 |
| 20260506101502 | 62 | 192 | 5.0 | 13.0 | 0.00 | 0.00 | 0.00 | 75 | 1009.2 |
| 20260506100059 | 62 | 245 | 5.0 | 12.0 | 0.00 | 0.00 | 0.00 | 74 | 1009.1 |
| 20260506094546 | 62 | 206 | 7.0 | 11.0 | 0.00 | 0.00 | 0.00 | 74 | 1009.2 |
| 20260506093045 | 62 | 208 | 5.0 | 15.0 | 0.00 | 0.00 | 0.00 | 73 | 1009.1 |
| 20260506091517 | 62 | 179 | 4.0 | 14.0 | 0.00 | 0.00 | 0.00 | 73 | 1009.1 |
| 20260506090014 | 62 | 228 | 5.0 | 12.0 | 0.00 | 0.00 | 0.00 | 72 | 1009.1 |
| 20260506084555 | 63 | 292 | 3.0 | 12.0 | 0.00 | 0.00 | 0.00 | 72 | 1009.1 |
| 20260506083053 | 63 | 252 | 3.0 | 11.0 | 0.00 | 0.00 | 0.00 | 71 | 1009.0 |
| 20260506081534 | 63 | 221 | 3.0 | 10.0 | 0.00 | 0.00 | 0.00 | 71 | 1009.0 |
| 20260506073010 | 64 | 217 | 4.0 | 12.0 | 0.00 | 0.00 | 0.00 | 68 | 1008.7 |
| 20260506071553 | 64 | 196 | 4.0 | 9.0 | 0.00 | 0.00 | 0.00 | 67 | 1008.5 |
| 20260506070108 | 64 | 181 | 4.0 | 12.0 | 0.00 | 0.00 | 0.00 | 66 | 1008.4 |
| 20260506061508 | 65 | 220 | 5.0 | 10.0 | 0.00 | 0.00 | 0.00 | 63 | 1008.4 |
| 20260506044517 | 65 | 227 | 3.0 | 13.0 | 0.00 | 0.00 | 0.00 | 61 | 1008.7 |
| 20260506043014 | 65 | 231 | 3.0 | 14.0 | 0.00 | 0.00 | 0.00 | 60 | 1008.8 |
| 20260506041554 | 65 | 279 | 3.0 | 13.0 | 0.00 | 0.00 | 0.00 | 59 | 1008.9 |